Location: ???? ??????? ????
(31.2176°N, 31.6797°E)
Time: 16:46:56
(UTC+00:00)

In-Cosmos 22 Rocket - Pass Details

Date: 29 October 2020
Orbit: 790 x 888 km, 81.2° (Epoch: 29 November)

Event Time Altitude Azimuth Distance (km) Brightness Sun altitude
Rises 15:55:11 0° 356° (N) 3,319 7.2 -10.9°
Reaches altitude 10° 15:57:34 10° 360° (N) 2,396 6.5 -11.4°
Maximum altitude 16:02:56 64° 81° (E) 908 4.1 -12.5°
Drops below altitude 10° 16:08:25 10° 163° (SSE) 2,444 6.5 -13.7°
Sets 16:10:52 0° 166° (SSE) 3,391 7.3 -14.2°
